Regional Weather Roundup
Issued by NWS

Home | Current Version | Previous Version | Text Only | Print | Product List | Glossary Off
Versions: 1 2 3 4 5 6 7 8 9 10 11 12 13 14 15 16 17 18 19 20 21 22 23 24 25 26 27 28 29 30 31 32 33 34 35 36 37 38 39 40 41 42 43 44 45 46 47 48 49 50

517
ASUS43 KBIS 232110
RWRND

NORTH DAKOTA REGIONAL WEATHER ROUNDUP
NATIONAL WEATHER SERVICE BISMARCK ND
300 PM CST TUE JAN 23 2018

NOTE: "FAIR" INDICATES FEW OR NO CLOUDS BELOW 12,000 FEET WITH NO
SIGNIFICANT WEATHER AND/OR OBSTRUCTIONS TO VISIBILITY.


NDZ001>003-009>011-017-232200-
NORTHWEST NORTH DAKOTA

CITY           SKY/WX    TMP DP  RH WIND       PRES   REMARKS
WILLISTON      SUNNY     29  19  66 W13       30.10S WCI  19
MINOT          CLOUDY    22  18  85 W8        30.09S WCI  12
MINOT AFB      CLOUDY    20  18  91 NW10      30.08S WCI   9
$$

NDZ018>021-031>035-040>046-232200-
SOUTHWEST NORTH DAKOTA

CITY           SKY/WX    TMP DP  RH WIND       PRES   REMARKS
BISMARCK       MOSUNNY   34  25  69 NW9       30.10S
DICKINSON      SUNNY     35  22  58 W16       30.06S
GARRISON         N/A     23  17  78 N10       30.09R WCI  12
HETTINGER ARPT SUNNY     36  22  56 W17       30.10S
$$

NDZ004>008-012>016-024-026-027-054-232200-
NORTHEAST NORTH DAKOTA

CITY           SKY/WX    TMP DP  RH WIND       PRES   REMARKS
GRAND FORKS    CLOUDY    23  20  88 S6        30.08R WCI  16
GRND FRKS AFB  CLOUDY    23  20  87 SW5       30.07S WCI  17
DEVILS LAKE    FLURRIES  19  18  93 NW16      30.07R WCI   5
$$

NDZ022-023-025-028>030-036>039-047>053-232200-
SOUTHEAST NORTH DAKOTA

CITY           SKY/WX    TMP DP  RH WIND       PRES   REMARKS
FARGO          CLOUDY    23  19  85 SW9       30.10R WCI  13
JAMESTOWN      CLOUDY    30  23  75 NW14      30.05R WCI  19
$$





USA.gov is the U.S. government's official web portal to all federal, state and local government web resources and services.